Weather History for Rogers City, MI

Change the Weather History Date:

Thursday, May 9, 2013

  Actual Average (KAPN) Record (KAPN)
Temperature  
Mean Temperature 53 °F 50 °F  
Max Temperature 61 °F 62 °F 89 °F (1953)
Min Temperature 43 °F 38 °F 22 °F (1925)
Degree Days  
Heating Degree Days 12 15  
Month to date heating degree days 145  
Since 1 July heating degree days 7704  
Cooling Degree Days 0 0  
Month to date cooling degree days 0  
Year to date cooling degree days 2  
Growing Degree Days 3 (Base 50)    
Moisture  
Dew Point 42 °F    
Average Humidity 63    
Maximum Humidity 83    
Minimum Humidity 51    
Precipitation  
Precipitation 0.00 in 0.08 in 2.01 in (1924)
Month to date precipitation 0.71  
Year to date precipitation 7.94  
Sea Level Pressure  
Sea Level Pressure 29.99 in    
Wind  
Wind Speed 4 mph (North)    
Max Wind Speed 8 mph    
Max Gust Speed -    
Visibility 10 miles    
Events Rain    
T = Trace of Precipitation, MM = Missing Value Source: NWS Daily Summary

Daily Weather History Graph

Daily Weather History Graph

Search for Another Location

Airport:

Trip Planner

Search our weather history database for the weather conditions in past years. The results will help you decide how hot, cold, wet, or windy it might be!

Date:

Astronomy

May. 09, 2013 Rise Set
Actual Time 6:12 AM EDT 8:52 PM EDT
Civil Twilight 5:38 AM EDT 9:25 PM EDT
Nautical Twilight 4:55 AM EDT 10:08 PM EDT
Astronomical Twilight 4:06 AM EDT 10:58 PM EDT
Moon 5:57 AM EDT (5/9) 8:46 PM EDT (5/9)
Length of Visible Light 15h 47m
Length of Day
14h 40m
Waning Crescent, 0% of the Moon is Illuminated
May 9
Waning Crescent
May 9
New
May 18
First Quarter
May 25
Full
May 31
Last Quarter

Hourly Weather History & Observations

Time (EDT) Temp. Windchill Dew Point Humidity Pressure Visibility Wind Dir Wind Speed Gust Speed Precip Events Conditions
12:15 AM 57.2 °F - 42.1 °F 57% 29.99 in 10.0 mi SW 4.6 mph - N/A   Clear
12:34 AM 57.6 °F - 41.9 °F 56% 29.98 in 10.0 mi SW 4.6 mph - N/A   Clear
12:55 AM 55.4 °F - 41.9 °F 60% 29.98 in 10.0 mi WSW 5.8 mph - N/A   Clear
1:15 AM 55.6 °F - 41.9 °F 60% 29.97 in 10.0 mi WSW 5.8 mph - N/A   Clear
1:35 AM 53.6 °F - 41.9 °F 65% 29.97 in 10.0 mi WSW 5.8 mph - N/A   Clear
1:55 AM 54.9 °F - 41.9 °F 62% 29.97 in 10.0 mi WSW 5.8 mph - N/A   Clear
2:15 AM 54.3 °F - 41.2 °F 61% 29.96 in 10.0 mi WSW 4.6 mph - N/A   Clear
2:35 AM 54.0 °F - 40.6 °F 61% 29.96 in 10.0 mi WSW 4.6 mph - N/A   Clear
2:55 AM 53.2 °F - 40.3 °F 61% 29.95 in 10.0 mi West 3.5 mph - N/A   Clear
3:15 AM 47.7 °F - 39.9 °F 75% 29.95 in 10.0 mi Calm Calm - N/A   Clear
3:35 AM 47.1 °F - 40.6 °F 78% 29.95 in 10.0 mi Calm Calm - N/A   Clear
3:55 AM 47.5 °F - 41.0 °F 78% 29.96 in 10.0 mi NNW 4.6 mph - N/A   Clear
4:15 AM 47.5 °F - 40.5 °F 77% 29.95 in 10.0 mi WSW 4.6 mph - N/A   Clear
4:35 AM 48.4 °F - 40.5 °F 74% 29.94 in 10.0 mi WSW 4.6 mph - N/A   Clear
4:55 AM 48.6 °F - 38.5 °F 68% 29.94 in 10.0 mi Calm Calm - N/A   Clear
5:15 AM 45.9 °F - 38.7 °F 76% 29.94 in 10.0 mi Calm Calm - N/A   Clear
5:35 AM 49.1 °F - 37.9 °F 65% 29.94 in 10.0 mi WNW 4.6 mph - N/A   Clear
5:54 AM 51.6 °F - 37.4 °F 58% 29.94 in 10.0 mi West 4.6 mph - N/A   Clear
6:15 AM 51.8 °F - 36.9 °F 57% 29.96 in 10.0 mi WNW 4.6 mph - N/A   Clear
6:35 AM 51.8 °F - 37.4 °F 58% 29.96 in 10.0 mi WNW 3.5 mph - N/A   Clear
6:55 AM 52.9 °F - 37.8 °F 56% 29.97 in 10.0 mi West 3.5 mph - N/A   Clear
7:15 AM 54.0 °F - 38.5 °F 56% 29.97 in 10.0 mi WNW 3.5 mph - N/A   Clear
7:34 AM 54.7 °F - 39.2 °F 56% 29.98 in 10.0 mi WNW 4.6 mph - N/A   Clear
7:55 AM 55.8 °F - 40.1 °F 56% 29.98 in 10.0 mi Calm Calm - N/A   Clear
8:15 AM 56.7 °F - 41.5 °F 57% 29.99 in 10.0 mi NNW 3.5 mph - N/A   Clear
8:35 AM 56.3 °F - 41.7 °F 58% 29.99 in 10.0 mi NNW 3.5 mph - N/A   Clear
8:55 AM 56.3 °F - 42.3 °F 59% 30.00 in 10.0 mi North 4.6 mph - N/A   Clear
9:15 AM 56.7 °F - 42.8 °F 60% 30.00 in 10.0 mi North 4.6 mph - N/A   Clear
9:35 AM 56.7 °F - 43.3 °F 61% 30.00 in 10.0 mi Calm Calm - N/A   Clear
9:55 AM 57.7 °F - 44.1 °F 60% 29.99 in 10.0 mi Calm Calm - N/A   Clear
10:14 AM 58.6 °F - 44.2 °F 59% 29.99 in 10.0 mi NE 3.5 mph - N/A   Clear
10:35 AM 58.6 °F - 44.6 °F 60% 29.99 in 10.0 mi Calm Calm - N/A   Clear
10:55 AM 59.0 °F - 45.0 °F 60% 29.99 in 10.0 mi NNE 5.8 mph - N/A   Clear
11:15 AM 58.5 °F - 45.0 °F 61% 29.99 in 10.0 mi NE 4.6 mph - N/A   Clear
11:35 AM 58.5 °F - 45.1 °F 61% 29.99 in 10.0 mi NE 6.9 mph - N/A   Clear
11:55 AM 56.8 °F - 44.6 °F 64% 30.00 in 10.0 mi North 6.9 mph - N/A   Clear
12:15 PM 55.8 °F - 44.8 °F 67% 30.00 in 10.0 mi NNE 5.8 mph - N/A   Clear
12:35 PM 55.6 °F - 45.0 °F 67% 30.00 in 10.0 mi NE 6.9 mph - N/A   Clear
1:15 PM 55.6 °F - 45.0 °F 67% 30.00 in 5.0 mi NNE 6.9 mph - N/A   Haze
1:35 PM 56.1 °F - 45.1 °F 67% 30.00 in 10.0 mi North 6.9 mph - N/A   Clear
1:55 PM 57.0 °F - 45.7 °F 66% 30.00 in 10.0 mi NNE 5.8 mph - N/A   Clear
2:15 PM 56.7 °F - 45.7 °F 67% 30.00 in 10.0 mi North 4.6 mph - N/A   Clear
2:35 PM 57.7 °F - 45.9 °F 65% 30.00 in 10.0 mi NNE 6.9 mph - N/A   Clear
2:55 PM 56.5 °F - 45.1 °F 66% 30.00 in 10.0 mi NE 5.8 mph - N/A   Clear
3:14 PM 57.2 °F - 44.8 °F 63% 30.00 in 10.0 mi NNE 5.8 mph - N/A   Clear
3:35 PM 57.7 °F - 44.8 °F 62% 29.99 in 10.0 mi North 5.8 mph - N/A   Clear
3:55 PM 57.7 °F - 45.1 °F 63% 29.99 in 10.0 mi NNE 4.6 mph - N/A   Clear
4:15 PM 57.6 °F - 45.5 °F 64% 29.98 in 10.0 mi NNE 4.6 mph - N/A   Clear
4:35 PM 59.2 °F - 44.6 °F 58% 29.98 in 10.0 mi NNE 3.5 mph - N/A   Clear
4:55 PM 61.3 °F - 44.4 °F 54% 29.98 in 10.0 mi North 3.5 mph - N/A   Clear
5:15 PM 61.7 °F - 43.5 °F 51% 29.98 in 10.0 mi North 4.6 mph - N/A   Clear
5:35 PM 61.7 °F - 43.5 °F 51% 29.99 in 10.0 mi North 4.6 mph - N/A   Scattered Clouds
5:55 PM 60.8 °F - 43.3 °F 53% 29.99 in 10.0 mi NNW 3.5 mph - N/A   Scattered Clouds
6:15 PM 60.1 °F - 43.7 °F 55% 29.99 in 10.0 mi Calm Calm - N/A   Clear
6:35 PM 59.4 °F - 42.8 °F 54% 29.98 in 10.0 mi NNW 3.5 mph - N/A   Clear
6:54 PM 59.0 °F - 42.8 °F 55% 29.98 in 10.0 mi North 4.6 mph - N/A   Scattered Clouds
7:15 PM 58.1 °F - 42.4 °F 56% 29.99 in 10.0 mi Calm Calm - N/A   Mostly Cloudy
7:35 PM 57.4 °F - 41.5 °F 56% 29.99 in 10.0 mi NNE 5.8 mph - N/A   Mostly Cloudy
7:55 PM 55.6 °F - 42.1 °F 60% 29.99 in 10.0 mi Calm Calm - N/A   Mostly Cloudy
8:15 PM 54.5 °F - 40.5 °F 59% 29.99 in 10.0 mi NNE 3.5 mph - N/A   Scattered Clouds
8:34 PM 53.2 °F - 40.3 °F 61% 30.00 in 10.0 mi NE 4.6 mph - N/A   Scattered Clouds
8:55 PM 52.9 °F - 40.1 °F 62% 30.00 in 10.0 mi NE 4.6 mph - N/A   Mostly Cloudy
9:15 PM 51.3 °F - 39.9 °F 65% 30.00 in 10.0 mi NE 5.8 mph - N/A   Overcast
9:35 PM 51.6 °F - 40.1 °F 65% 30.01 in 10.0 mi NE 8.1 mph - N/A   Overcast
9:55 PM 49.5 °F - 39.6 °F 69% 30.03 in 10.0 mi NNW 4.6 mph - N/A   Overcast
10:15 PM 49.8 °F - 40.1 °F 69% 30.06 in 10.0 mi Calm Calm - N/A   Overcast
10:35 PM 50.5 °F - 38.8 °F 64% 30.06 in 10.0 mi NE 4.6 mph - N/A   Overcast
10:55 PM 49.1 °F - 39.4 °F 69% 30.07 in 10.0 mi Calm Calm - N/A Rain Light Rain
11:15 PM 47.7 °F - 39.4 °F 73% 30.06 in 10.0 mi NE 4.6 mph - N/A Rain Light Rain
11:35 PM 45.7 °F 44.4 °F 38.5 °F 76% 30.06 in 10.0 mi NNE 3.5 mph - N/A Rain Light Rain
11:55 PM 43.2 °F 38.4 °F 38.3 °F 83% 30.05 in 10.0 mi North 8.1 mph - N/A Rain Light Rain